NOAA 16 DEB, 41658

Orbit data source: Space-Track

NOAA 16 DEB, 41658 is space debris in SSO originally from a launch on Thu, 21 Sep 2000 UTC launched from the Air Force Western Test Range (AFWTR). Debris objects in space refer to the collection of defunct objects orbiting the Earth. Examples of debris include non-operational satellites, rocket bodies, and fragments generated from explosions, collisions, or faulty payload assembly.

Loading next visibility...
Identifier
41658, 2000-055NX
Orbit
SSO
Country
Flag of USUS
Related business
Manufacturer
Unknown
Mission
Spacecraft
Bus & Motor
Unknown
Mass
Unknown
Launch date (UTC)
2000-09-21 (25 years ago)
Launch vehicle
Unknown
Launch site
Air Force Western Test Range (AFWTR)
Object type
Payload
Rocket body
Debris
Shape & HBR
Unknown shape, 0.1 m
Radar Cross Section
Small (<0.1 m²)

Expand to show TLE details & history
Last TLE update: 1 day ago

TLE from 1 day ago
0 NOAA 16 DEB
1 41658U 00055NX  25290.22089152  .00061218  00000-0  83218-2 0  9993
2 41658  98.8742  99.9557 0012776  32.4357 327.7634 14.78433632 76179
Epoch: 2025-10-17T05:18Z
TLE epoch observation values (Epoch: 2025-10-17T05:18:05.027Z)
Latitude
0.00001°
Longitude
-5.53463°
Altitude
629.685 km
Speed
7.548 km/s
True Right ascension
06h 39m 49s
True Declination
0° 00' 00"
Sunlit
Object was in daylight at epoch
Visualization orbit readout
Latitude
Unknown
Longitude
Unknown
Altitude
Unknown
Speed
Unknown
Apparent Right ascension
Unknown
Apparent Declination
Unknown
Sunlit
N/A
Visualization observer readout
Local Sidereal Time
10:56:29
Azimuth
Unknown
Elevation
Unknown
Doppler factor
Unknown
Orbital elements
Apogee altitude
640.317 km
Perigee altitude
622.407 km
Semi-major axis
7,009.499 km
Eccentricity
0.00128
Inclination
98.8742°
RAAN
99.9557°
Arg. of periapsis
32.4357°
True anomaly
327.6852°
Mean anomaly
327.7634°
Eccentric anomaly
327.72431°
Mean motion
3.69839 °/min
Orbital period
97.34 mins
BSTAR
0.0083218
Loading maneuver chart data...
Computing Atmospheric mass density...

Documentation

Showing up to 5 results
|